AirNav   Everest Fuels
 
 935 users online  

3PS1 Pitcairn Heliport
Bryn Athyn, Pennsylvania, USA

GOING TO BRYN ATHYN?


FAA INFORMATION EFFECTIVE 18 JUNE 2020

Location

FAA Identifier: 3PS1
Lat/Long: 40-07-33.3950N 075-04-43.6190W
40-07.556583N 075-04.726983W
40.1259431,-75.0787831
(estimated)
Elevation: 190 ft. / 58 m (estimated)
Variation: 12W (1985)
From city: 1 mile NW of BRYN ATHYN, PA
Time zone: UTC -4 (UTC -5 during Standard Time)
Zip code: 19006

Heliport Operations

Heliport use: Private use, PERSONAL USE.
Activation date: 04/1987
Control tower: no
ARTCC: NEW YORK CENTER
FSS: WILLIAMSPORT FLIGHT SERVICE STATION
Attendance: UNATNDD
Wind indicator: yes
Segmented circle: yes

Heliport Communications

WX ASOS at PNE (4 nm SE): 121.15 (215-677-0146)
WX AWOS-3 at LOM (9 nm W): 118.925 (215-646-1068)
WX ASOS at DYL (13 nm N): 118.875 (215-345-0392)
WX ASOS at TTN (15 nm NE): 126.775 (609-538-8690)
WX ASOS at VAY (15 nm SE): 119.325 (609-267-1176)
WX ASOS at PHL (17 nm SW): PHONE 215-492-9617
WX AWOS-3 at CKZ (19 nm NW): 126.325 (215-257-7291)

Nearby radio navigation aids

VOR radial/distance  VOR name  Freq  Var
ARDr236/11.0YARDLEY VOR/DME108.2010W
PTWr114/22.8POTTSTOWN VORTAC116.5009W
GXUr300/23.2MC GUIRE VORTAC110.6012W
RBVr270/27.2ROBBINSVILLE VORTAC113.8010W
MXEr074/29.9MODENA VORTAC113.2009W
OODr029/31.2WOODSTOWN VORTAC112.8010W
SBJr219/31.5SOLBERG VOR/DME112.9010W
CYNr312/35.0COYLE VORTAC113.4010W
VCNr002/35.7CEDAR LAKE VOR/DME115.2010W
DQOr052/36.2DUPONT VORTAC114.0010W
ETXr144/38.9EAST TEXAS VOR/DME110.2009W
FJCr165/39.9ALLENTOWN VORTAC117.5010W

 
NDB name  Hdg/Dist  Freq  Var  ID
AMBLER102/9.527512WING .. -. --.
LAKEHURST289/34.539611WNEL -. . .-..

Heliport Services

Runway Information

Helipad H1

Dimensions: 60 x 60 ft. / 18 x 18 m
Surface: turf
Traffic pattern: leftleft

Heliport Ownership and Management from official FAA records

Ownership: Privately-owned
Owner: STEPHEN PITCAIRN
2410 TERWOOD DRIVE
BRYN ATHYN, PA 19009
Phone 215-947-1061

Heliport Operational Statistics

Aircraft based on the field: 1
Helicopters: 1
    

Additional Remarks

A52-H1 40' TREES 200' NW; 30' TREES 200' SE.
FOR CD CTC PHILADELPHIA APCH AT 800-354-9884.

Instrument Procedures

There are no published instrument procedures at 3PS1.

Some nearby airports with instrument procedures:

KPNE - Northeast Philadelphia Airport (4 nm SE)
KLOM - Wings Field Airport (9 nm W)
KDYL - Doylestown Airport (13 nm N)
KTTN - Trenton Mercer Airport (15 nm NE)
KVAY - South Jersey Regional Airport (15 nm SE)
N10 - Perkiomen Valley Airport (17 nm W)
KPHL - Philadelphia International Airport (17 nm SW)
N14 - Flying W Airport (17 nm SE)
KCKZ - Pennridge Airport (19 nm NW)
 
Loc | Ops | Rwys | IFR | FBO | Links
Com | Nav | Svcs | Stats | Notes
Area around 3PS1 (Pitcairn Heliport)
 
Road maps at: MapQuest Bing Google
 
Aerial photo
No photo
 
Sectional chart

 
Airport distance calculator
Flying to Pitcairn Heliport? Find the distance to fly.

From to 3PS1

Sunrise and sunset
Times for 07-Jul-2020
 Local
(UTC-4)
 Zulu
(UTC)
Morning civil twilight05:0709:07
Sunrise05:4009:40
Sunset20:3100:31
Evening civil twilight21:0301:03

Current date and time
Zulu (UTC)  08-Jul-2020 00:26:45
Local (UTC-4)  07-Jul-2020 20:26:45
 
METAR
KPNE 
4nm SE 
072354Z AUTO 18004KT 7SM -RA SCT025 BKN043 OVC065 26/24 A3003 RMK AO2 RAB04 SLP166 P0051 60051 T02560239 10311 20244 53002
KLOM 
9nm W 
080015Z AUTO 16004KT 10SM CLR 27/22 A3003 RMK AO2 T02670224
KDYL 
13nm N 
072354Z AUTO VRB04KT 10SM BKN060 28/20 A3002 RMK AO2 SLP158 T02780200 10317 20278 55003
KTTN 
15nm NE 
ASOS 133.70 609-538-8690
080019Z 12006KT 5SM -RA BR FEW023 BKN034 OVC048 25/24 A3003 RMK AO2 P0012 T02500239
KVAY 
16nm SE 
ASOS 119.325 609-267-1176
072354Z AUTO 16004KT 10SM CLR 28/18 A3002 RMK AO2 SLP165 T02780183 10317 20278 53003
KPHL 
17nm SW 
072354Z 20008KT 10SM FEW050 FEW150 SCT250 28/22 A3001 RMK AO2 SLP163 T02830217 10311 20283 53002
KCKZ 
19nm NW 
080015Z AUTO 00000KT 10SM BKN038 BKN046 OVC060 28/22 A3004 RMK AO2
TAF
KPNE 
4nm SE 
071739Z 0718/0818 VRB04KT P6SM FEW035 FEW045 FM071900 16005KT P6SM VCTS BKN060CB FM080100 VRB03KT P6SM SCT060 FM081600 VRB04KT P6SM BKN035
KTTN 
15nm NE 
071739Z 0718/0818 16004KT P6SM FEW035 FM071900 15005KT P6SM BKN040 FM080300 VRB03KT P6SM BKN060 FM080800 VRB05KT P6SM BKN030 FM081600 VRB03KT P6SM BKN035
KPHL 
17nm SW 
072053Z 0721/0824 19006KT P6SM BKN045 FM080100 VRB03KT P6SM BKN090 FM081100 VRB04KT P6SM BKN030 FM081400 VRB04KT P6SM BKN035
NOTAMs
Click for the latest NOTAMs
NOTAMs are issued by the DoD/FAA and will open in a separate window not controlled by AirNav.

 

 
 

Would you like to see your business listed on this page?

 If your business provides an interesting product or service to pilots, flight crews, aircraft, or users of the Pitcairn Heliport, you should consider listing it here.  To start the listing process, click on the button below
 
Add a business
 

Other Pages about Pitcairn Heliport

Update a link
 
Copyright © AirNav, LLC. All rights reserved. Privacy Policy  Contact